Home   Weather   Latakia   Past weeks

Flag for Syria Past Weather in Latakia, Syria — Yesterday and Last 2 Weeks

Now
54 °F

Partly cloudy.


Feels Like: 52 °F
Forecast: 57 / 62 °F
Wind: 7 mph from East

Location: Lattakia Airport

Current Time: Feb 26, 2018 at 5:54:05 am

Latest Report: Feb 26, 2018 at 5:00 am


Visibility: N/A

Pressure: 29.77 "Hg

Humidity: 82%

Dew Point: 48 °F

Location of LatakiaLocation

Past Weather in Latakia — Graph

°F

Latakia Temperature Yesterday

Maximum temperature yesterday: 64 °F (at 4:00 pm)
Minimum temperature yesterday: 52 °F (at 1:00 am)
Average temperature yesterday: 58 °F

High & Low Weather Summary for the Past Weeks

 TemperatureHumidityPressure
High72 °F (Feb 11, 2:00 pm)94% (Feb 12, 8:00 am)30.18 "Hg (Feb 12, 8:00 am)
Low46 °F (Feb 23, 6:00 am)35% (Feb 23, 4:00 pm)29.65 "Hg (Feb 17, 10:00 pm)
Average59 °F69%29.89 "Hg
* Reported Feb 11 5:00 am — Feb 26 5:00 am, Latakia. Weather by CustomWeather, © 2018

Note: Actual official high and low records may vary slightly from our data, if they occured in-between our weather recording intervals... More about our weather records

Advertising

Latakia Weather History for the Previous 24 Hours

Scroll right to see more
 ConditionsComfort  
Time TempWeatherWind HumidityBarometerVisibility
5:00 am
Mon, Feb 26
54 °FPartly cloudy.7 mph82%29.77 "HgN/A
4:00 am55 °FPartly cloudy.5 mph82%29.77 "HgN/A
3:00 am55 °FPartly cloudy.5 mph82%29.80 "HgN/A
2:00 am57 °FPartly cloudy.6 mph82%29.80 "HgN/A
1:00 am61 °FPartly cloudy.5 mph68%29.80 "HgN/A
12:00 am61 °FPartly cloudy.9 mph72%29.80 "HgN/A
11:00 pm
Sun, Feb 25
61 °FPartly cloudy.12 mph68%29.80 "HgN/A
10:00 pm61 °FPassing clouds.8 mph68%29.80 "HgN/A
9:00 pm59 °FPassing clouds.8 mph68%29.80 "HgN/A
8:00 pm55 °FPassing clouds.7 mph77%29.77 "HgN/A
6:00 pm59 °FPassing clouds.7 mph68%29.77 "HgN/A
5:00 pm63 °FScattered clouds.9 mph64%29.74 "HgN/A
4:00 pm64 °FBroken clouds.9 mph56%29.74 "HgN/A
3:00 pm63 °FBroken clouds.9 mph73%29.74 "Hg5 mi
2:00 pm59 °FBroken clouds.17 mph77%29.74 "Hg5 mi
1:00 pm55 °FBroken clouds.17 mph88%29.74 "Hg4 mi
12:00 pm55 °FRain. Broken clouds.9 mph88%29.77 "Hg3 mi
11:00 am59 °FRain showers. Broken clouds.5 mph82%29.77 "Hg2 mi
10:00 am61 °FBroken clouds.14 mph77%29.77 "Hg5 mi
9:00 am61 °FBroken clouds.14 mph77%29.77 "HgN/A
8:00 am61 °FBroken clouds.14 mph77%29.77 "HgN/A
7:00 am59 °FBroken clouds.9 mph72%29.77 "Hg5 mi
5:00 am57 °FPartly cloudy.14 mph77%29.77 "HgN/A
Weather by CustomWeather, © 2018

See weather overview